Preview of NWS' New Version of Forecast
This preview is not operational and should not be used for support decisions.

Regional Weather Roundup (RWR)

Issued by National Weather Service (NWS)

                            
000
ASUS44 KMEG 220100
RWRTN 
TENNESSEE HOURLY STATE WEATHER ROUNDUP
NATIONAL WEATHER SERVICE MEMPHIS TN
800 PM CDT SUN JUL 21 2019

TNZ002-004-019-021-049-052-054-088>092-220200-
WEST TENNESSEE
  
CITY           SKY/WX    TMP DP  RH WIND       PRES   REMARKS
MEMPHIS INTL   MOCLDY    84  78  82 S12       29.95S HX  95           
NWS MEMPHIS      N/A     83 N/A N/A MISG        N/A                   
JACKSON        FAIR      82  76  81 SW6       29.94S                  
DYERSBURG      FAIR      83  76  79 S3        29.93F HX  91           
HUNTINGDON     CLEAR     84  77  79 SW5       29.92S HX  94           
SELMER         CLEAR     81  77  89 VRB5      29.94F                  
$$

TNZ008-025-027-028-033-062-065-066-220200-
NORTH MIDDLE TENNESSEE
  
CITY           SKY/WX    TMP DP  RH WIND       PRES   REMARKS
NASHVILLE      MOCLDY    84  73  69 S3        29.94F HX  90           
CLARKSVILLE    FAIR      84  76  76 SW6       29.93R HX  93           
SMYRNA         FAIR      83  76  79 S5        29.95S HX  91           
LIVINGSTON     CLEAR     77  73  88 CALM      29.99R                  
CROSSVILLE     FAIR      75  72  90 CALM      30.05R                  
$$

TNZ061-075-076-078-094-096-097-220200-
SOUTH MIDDLE TENNESSEE
  
CITY           SKY/WX    TMP DP  RH WIND       PRES   REMARKS
$$

TNZ017-018-042-046-047-220200-
NORTHEAST TENNESSEE
  
CITY           SKY/WX    TMP DP  RH WIND       PRES   REMARKS
TRI CITIES     MOCLDY    81  70  69 SW5       30.01S                  
$$

TNZ012-013-036-069-073-074-220200-
CENTRAL EAST TENNESSEE
  
CITY           SKY/WX    TMP DP  RH WIND       PRES   REMARKS
KNOXVILLE      FAIR      81  71  71 SW6       29.98R                  
OAK RIDGE      FAIR      82  72  71 CALM      30.00R                  
$$

TNZ083-085-099-220200-
SOUTHEAST TENNESSEE
  
CITY           SKY/WX    TMP DP  RH WIND       PRES   REMARKS
CHATTANOOGA    MOCLDY    85  71  63 SW7       29.98S HX  90           
$$

SKY/WX REPORTED AS FAIR MEANS FEW OR NO CLOUDS BELOW
12 THOUSAND FEET.